Home > Time Zones > World Clock > Weather > India > Pali > Past weeks

Flag for India Weather past 2 weeks in Pali, Rajasthan, India

Now
72 °F

Fog.


Feels Like: 72 °F
Forecast: 78 / 99 °F
Wind: 5 mph from East

Location: Jaipur / Sanganer

Current Time: Apr 1, 2015 at 7:08:14 AM

Latest Report: Apr 1, 2015 at 6:00 AM


Visibility: 2 mi

Pressure: 29.86 "Hg

Humidity: 78%

Dew point: 64 °F

Location of PaliLocation

Historic Weather in Pali — Graph

°F

Pali temperature yesterday

Maximum temperature yesterday: 88 °F (at 3:00 PM)
Minimum temperature yesterday: 68 °F (at 5:30 AM)
Average temperature yesterday: 80 °F

Past Weeks' High & Low Weather Summary

 TemperatureHumidityPressure
High99 °F (Mar 25, 4:00 PM)100% (Mar 17, 5:00 AM)30.15 "Hg (Mar 17, 5:00 AM)
Low61 °F (Mar 17, 7:00 AM)17% (Mar 24, 3:30 PM)29.71 "Hg (Mar 30, 5:00 PM)
Average81 °F43%29.96 "Hg
* Reported Mar 17 5:00 AM — Apr 1 5:00 AM, Pali, Weather by CustomWeather, © 2015

Note: Actual official high and low records may vary slightly from our data, if they occured in-between our weather recording intervals... More about our weather records

Advertising

Pali weather history for previous 24 hours

 ConditionsComfort  
Time TempWeatherWind HumidityBarometerVisibility
5:00 AM
Wed, Apr 1
73 °FHaze.3 mph69%29.83 "Hg1 mi
4:00 AM72 °FHaze.3 mph69%29.83 "Hg1 mi
3:00 AM72 °FHaze.6 mph69%29.83 "Hg1 mi
2:00 AM73 °FHaze.5 mph65%29.86 "Hg1 mi
1:00 AM75 °FHaze.5 mph61%29.86 "Hg1 mi
12:00 AM75 °FHaze.5 mph61%29.86 "Hg1 mi
11:00 PM
Tue, Mar 31
75 °FHaze.5 mph69%29.89 "Hg1 mi
10:00 PM77 °FHaze.6 mph65%29.89 "Hg2 mi
8:00 PM81 °FPassing clouds.12 mph58%29.86 "Hg2 mi
7:00 PM86 °FScattered clouds.2 mph29%29.83 "Hg2 mi
6:00 PM88 °FScattered clouds.2 mph29%29.83 "Hg2 mi
5:00 PM88 °FScattered clouds.2 mph31%29.83 "Hg2 mi
4:00 PM88 °FScattered clouds.7 mph33%29.83 "Hg2 mi
3:00 PM88 °FScattered clouds.6 mph35%29.83 "Hg2 mi
2:00 PM86 °FScattered clouds.1 mph38%29.86 "Hg2 mi
1:00 PM84 °FScattered clouds.5 mph45%29.89 "Hg2 mi
12:00 PM82 °FHaze.5 mph58%29.92 "Hg2 mi
10:00 AM75 °FClear.3 mph74%29.95 "Hg1 mi
9:00 AM73 °FFog.5 mph78%29.92 "Hg1 mi
Weather by CustomWeather, © 2015

See weather overviewHow to use our weather pages